Other Public Products
Issued by NWS Charleston, SC

Current Version | Previous Version | Graphics & Text | Print | Product List | Glossary Off
Versions: 1 2 3 4 5 6 7 8 9 10 11 12 13 14 15 16 17 18 19 20 21 22 23 24 25 26 27 28 29 30 31 32 33 34 35 36 37 38 39 40 41 42 43 44 45 46 47 48 49 50

552
FPUS82 KCHS 252227
OPUCHS

TEST...KCHS/KSAV Gateway Observations...TEST
National Weather Service Charleston SC
600 PM EDT SAT MAR 25 2017

NOTE: "fair" indicates few or no clouds below 12,000 feet with no
significant weather and/or obstructions to visibility.

SCZ050-WAZ558-NCZ071-TXZ119-213-PAZ071-DCZ001-FLZ074-172-MI076-
NYZ176-178-MAZ016-IL014-TNZ027-NJZ106-GAZ044-MD014-252300-

...Gateway Observations for Charleston International...

CITY           SKY/WX    TMP DP  RH WIND       PRES   REMARKS
Chas Airport   CLOUDY    70  54  56 SE13      30.22F
Seattle        PTSUNNY   50  39  66 SW14      30.10F
Charlotte      PTSUNNY   72  47  40 S12       30.18F
Dallas DFW     MOSUNNY   73  45  36 W10       29.91F
Dallas Love    MOSUNNY   72  45  37 NW12G18   29.92F
Philladelphia  LGT RAIN  60  54  80 NE14G23   30.20R
Wash National  CLOUDY    77  51  40 CALM      30.13F
Baltimore      CLOUDY    74  52  46 SE7       30.14R
Miami          PTSUNNY   76  65  68 E5        30.11F
Detroit        CLOUDY    44  38  79 NE16      30.20S
Newark         CLOUDY    49  40  71 N15       30.28R
Laguardia      CLOUDY    50  38  63 E8        30.27R
J F K          CLOUDY    52  41  66 NE16      30.28R
Boston Logan   CLOUDY    37  34  89 N8        30.32R WCI  31
Ft. Lauderdale CLOUDY    74  64  71 E16       30.11S
Chicago O`Hare LGT RAIN  44  41  89 NE8       29.99S FOG
Chicago Midway LGT RAIN  46  45  96 N8G20     29.99R FOG
Houston Bush   MOSUNNY   80  52  37 VRB3      29.93F
Houston Hobby  MOSUNNY   80  53  39 W8        29.92F
Nashville      CLOUDY    68  59  73 SE14      29.99F
Atlanta        PTSUNNY   74  50  42 S15       30.11F

$$

GAZ044-118-TXZ119-213-NCZ071-DCZ001-MDZ014-506-PAZ021-071-NJZ106-
NYZ176-178-MAZ106-OHZ011-021-055-MIZ076-KYZ091-ILZ014-INZ047-
MNZ060-ONZ431-252300-

...Gateway Observations for Savannah International...

CITY           SKY/WX    TMP DP  RH WIND       PRES   REMARKS
Savannah Arpt  PTSUNNY   73  52  47 SE14      30.19F
Atlanta        PTSUNNY   74  50  42 S15       30.11F
Charlotte      PTSUNNY   72  47  40 S12       30.18F
Dallas DFW     MOSUNNY   73  45  36 W10       29.91F
Houston Bush   MOSUNNY   80  52  37 VRB3      29.93F
Wash National  CLOUDY    77  51  40 CALM      30.13F
Wash Dulles    CLOUDY    73  52  47 NE6       30.14R
Baltimore      CLOUDY    74  52  46 SE7       30.14R
Philadelphia   LGT RAIN  60  54  80 NE14G23   30.20R
Newark         CLOUDY    49  40  71 N15       30.28R
Laguardia      CLOUDY    50  38  63 E8        30.27R
J F K          CLOUDY    52  41  66 NE16      30.28R
Boston         CLOUDY    37  34  89 N8        30.32R WCI  31
Pittsburg      CLOUDY    71  52  50 E3        30.13S
Akron          CLOUDY    67  51  56 NE9       30.13R
Cleveland      CLOUDY    47  37  68 N13       30.17S
Cincinnati     CLOUDY    74  51  44 S17       30.00F
Columbus       CLOUDY    72  51  46 SE6       30.06S
Detroit        CLOUDY    44  38  79 NE16      30.20S
Chicago O`Hare LGT RAIN  44  41  89 NE8       29.99S FOG
Minneapolis    CLOUDY    43  32  65 E12       30.07F
Indianapolis   CLOUDY    71  56  58 S7        29.93F
Toronto Canada PTSUNNY   39  32  75 SE8       30.34S WCI  34

$$




USA.gov is the U.S. government's official web portal to all federal, state and local government web resources and services.